Weather observations for the past three days for
Faith
Metric (Imperial)
Date Time (mdt) Wind (kph) Vis. (km) Weather Sky Cond. Temperature (ºC) Relative Humidity Wind Chill (°C) Heat Index (°C) Pressure Precipitation (cm)
Air Dwpt 6 hour altimeter (cm) sea level (mb) 1 hr 3 hr 6 hr
Max. Min.
04 20:56 N 15 0.00 NULL NULL 6.1 -2.8 53% 3 75.84 1012.4
04 19:56 N 13 0.00 NULL NULL 7.8 -2.8 47% 6 75.77 1011.2
04 18:56 N 24 0.00 NULL NULL 9.4 -3.3 41% 7 75.72 1010.5
04 17:56 N 31 G 46 0.00 NULL NULL 11.1 -3.3 12.2 10.6 37% 75.69 1010.3
04 16:56 N 37 G 54 0.00 Breezy NULL 12.2 -2.8 35% 75.69 1009.7
04 15:56 N 43 G 61 0.00 Windy NULL 11.7 -2.8 37% 75.69 1010.0
04 14:56 NW 41 G 61 0.00 Breezy NULL 11.7 -3.9 34% 75.69 1009.8
04 13:56 NW 37 G 61 0.00 Breezy NULL 11.1 -3.3 37% 75.69 1009.7
04 12:56 NW 43 G 57 0.00 Windy NULL 11.1 -3.3 37% 75.69 1009.8
04 11:56 NW 30 G 56 0.00 NULL NULL 10.6 -2.8 10.6 5.6 39% 75.72 1010.0
04 10:56 NW 30 G 44 0.00 NULL NULL 10 -1.7 44% 7 75.74 1010.3
04 09:56 NW 33 G 44 0.00 Breezy NULL 10 0 50% 7 75.69 1009.8
04 08:56 NW 31 G 56 0.00 NULL NULL 10 1.7 57% 7 75.67 1009.1
04 07:56 NW 31 G 43 0.00 NULL NULL 9.4 1.7 59% 6 75.59 1008.1
04 06:56 NW 26 0.00 NULL NULL 7.8 2.2 68% 4 75.57 1007.3
04 05:56 N 22 0.00 NULL NULL 5.6 1.7 10.6 5 76% 2 75.46 1006.2
04 04:56 N 19 0.00 NULL NULL 6.1 2.2 76% 3 75.41 1005.2
04 03:56 N 20 0.00 NULL NULL 6.1 2.2 76% 3 75.36 1004.6
04 02:56 N 20 0.00 NULL NULL 7.2 2.2 71% 4 75.31 1003.8
04 01:56 NW 20 0.00 NULL NULL 10.6 3.9 64% 75.26 1002.8
04 00:56 SW 22 0.00 NULL NULL 10 5 71% 7 75.18 1002.1
03 23:56 SW 22 0.00 NULL NULL 10 5.6 21.1 10 74% 7 75.23 1002.8
03 22:56 SW 26 0.00 NULL NULL 11.1 5.6 69% 75.29 1003.7
03 21:56 SW 22 0.00 NULL NULL 11.7 5.6 66% 75.34 1004.3
03 20:56 SW 20 0.00 NULL NULL 13.3 5.6 60% 75.34 1004.3
03 19:56 SW 20 0.00 NULL NULL 16.1 6.1 52% 75.36 1004.5
03 18:56 W 24 G 35 0.00 NULL NULL 18.9 5 40% 75.39 1005.0
03 17:56 W 22 0.00 NULL NULL 21.1 3.3 22.2 17.8 31% 75.46 1006.1
03 16:56 W 19 G 28 0.00 NULL NULL 22.2 3.3 29% 75.54 1006.9
03 15:56 W 30 G 41 0.00 NULL NULL 21.7 2.8 29% 75.59 1007.6
03 14:56 W 26 0.00 NULL NULL 21.1 2.2 29% 75.69 1009.2
03 13:56 Vrbl 9 0.00 NULL NULL 20 1.7 30% 75.79 1010.5
03 12:56 NW 15 0.00 NULL NULL 18.9 1.7 32% 75.87 1011.8
03 11:56 Calm 0.00 NULL NULL 17.8 0 17.8 3.3 30% 75.97 1012.9
03 10:56 Vrbl 6 0.00 NULL NULL 16.7 -0.6 31% 76.02 1013.8
03 09:56 SW 7 0.00 NULL NULL 15 0.6 38% 76.05 1014.1
03 08:56 SW 7 0.00 NULL NULL 13.9 -0.6 37% 76.1 1014.6
03 07:56 Calm 0.00 NULL NULL 11.7 0.6 47% 76.12 1014.9
03 06:56 W 7 0.00 NULL NULL 7.8 2.2 68% 7 76.12 1015.1
03 05:56 W 7 0.00 NULL NULL 3.9 0 8.3 3.9 76% 2 76.12 1015.2
03 04:56 W 7 0.00 NULL NULL 4.4 0.6 77% 3 76.12 1014.8
03 03:56 NW 9 0.00 NULL NULL 5.6 0.6 71% 4 76.12 1014.7
03 02:56 NW 15 0.00 NULL NULL 5.6 1.1 73% 3 76.1 1014.6
03 01:56 NW 17 0.00 NULL NULL 6.7 1.7 71% 4 76.07 1013.9
03 00:56 NW 13 0.00 NULL NULL 6.1 1.1 71% 4 76.07 1013.9
02 23:56 N 15 0.00 NULL NULL 8.3 1.7 20.6 8.3 63% 6 76.05 1013.7
02 22:56 N 17 0.00 NULL NULL 8.9 1.7 61% 7 76.02 1013.5
02 21:56 N 19 0.00 NULL NULL 10.6 2.2 56% 76.02 1013.5
02 20:56 N 19 0.00 NULL NULL 12.2 2.2 51% 76 1013.4
02 19:56 N 19 0.00 NULL NULL 14.4 2.2 44% 75.95 1013.0
02 18:56 N 20 0.00 NULL NULL 17.8 3.3 38% 75.9 1012.3
02 17:56 N 35 G 44 0.00 Breezy NULL 20.6 2.8 25 20.6 31% 75.84 1011.6
02 16:56 N 31 G 46 0.00 NULL NULL 22.8 1.7 25% 75.79 1010.7
02 15:56 N 30 G 44 0.00 NULL NULL 24.4 3.3 25% 25 75.79 1010.4
02 14:56 NW 30 G 48 0.00 NULL NULL 23.9 1.7 23% 25 75.79 1010.6
02 13:56 W 26 G 48 0.00 NULL NULL 23.9 0 21% 24 75.82 1011.0
02 12:56 W 19 G 33 0.00 NULL NULL 23.3 2.2 25% 75.9 1012.1
02 11:56 W 24 0.00 NULL NULL 21.1 1.7 21.1 2.2 28% 75.97 1013.4
02 10:56 W 22 0.00 NULL NULL 18.9 1.1 30% 76.05 1014.2
02 09:56 SW 19 0.00 NULL NULL 15.6 1.7 39% 76.1 1015.1
02 08:56 SW 20 0.00 NULL NULL 11.7 1.1 48% 76.15 1015.9
02 07:56 S 24 0.00 NULL NULL 7.8 -0.6 56% 5 76.17 1016.6
02 06:56 S 24 0.00 NULL NULL 3.9 -1.7 67% -0 76.25 1017.7
02 05:56 SW 22 0.00 NULL NULL 2.2 -2.8 3.9 1.7 70% -2 76.28 1018.1
02 04:56 SW 22 0.00 NULL NULL 2.8 -2.8 67% -2 76.33 1018.6
02 03:56 SW 24 0.00 NULL NULL 2.8 -2.8 67% -2 76.38 1019.5
02 02:56 SW 20 0.00 NULL NULL 2.8 -2.8 67% -1 76.4 1019.7
02 01:56 SW 19 0.00 NULL NULL 2.8 -2.8 67% -1 76.43 1020.4
02 00:56 S 22 0.00 NULL NULL 1.7 -2.8 72% -3 76.48 1020.9
01 23:56 S 19 0.00 NULL NULL 2.2 -2.8 14.4 2.2 70% -2 76.48 1021.2
01 22:56 S 17 0.00 NULL NULL 3.9 -2.8 62% 0 76.5 1021.2
01 21:56 S 15 0.00 NULL NULL 6.7 -2.8 51% 4 76.53 1021.4
Date Time (mdt) Wind (kph) Vis. (km) Weather Sky Cond. Air Dwpt Max. Min. Relative Humidity Wind Chill (°C) Heat Index (°C) altimeter (cm) sea level (mb) 1 hr 3 hr 6 hr
6 hour
Temperature (ºC) Pressure Precipitation (cm)